AirNav  
 
 1431 users online  

ME11 Cooper Seaplane Base
Hartford, Maine, USA

GOING TO HARTFORD?


FAA INFORMATION EFFECTIVE 01 FEBRUARY 2018

Location

FAA Identifier: ME11
Lat/Long: 44-20-32.2440N / 070-17-16.2080W
44-20.537400N / 070-17.270133W
44.3422900 / -70.2878356
(estimated)
Elevation: 373 ft. / 114 m (estimated)
Variation: 17W (1985)
From city: 3 miles E of HARTFORD, ME
Time zone: UTC -5 (UTC -4 during Daylight Saving Time)
Zip code: 04221

Seaplane Base Operations

Seaplane Base use: Private use. Permission required prior to landing
Activation date: 05/1989
Control tower: no
ARTCC: BOSTON CENTER
FSS: BANGOR FLIGHT SERVICE STATION
Attendance: UNATNDD
Wind indicator: yes
Segmented circle: no

Seaplane Base Communications

WX AWOS-3PT at LEW (18 nm S): 118.025 (207-783-2806)

Nearby radio navigation aids

VOR radial/distance  VOR name  Freq  Var
AUGr292/21.1AUGUSTA VOR/DME111.4018W

Seaplane Base Services

Runway Information

Runway 16W/34W

Dimensions: 4000 x 500 ft. / 1219 x 152 m
Surface: water
RUNWAY 16W  RUNWAY 34W
Traffic pattern: leftleft

Runway 5W/23W

Dimensions: 3000 x 500 ft. / 914 x 152 m
Surface: water
RUNWAY 5W  RUNWAY 23W
Traffic pattern: leftleft
Obstructions: 40 ft. trees, 800 ft. from runway, 20:1 slope to clear40 ft. trees, 800 ft. from runway, 20:1 slope to clear

Seaplane Base Ownership and Management from official FAA records

Ownership: Privately-owned
Owner: MICHAEL D. COOPER
PO BOX 552
N. TURNER, ME 04266
Phone 207-224-7950
Manager: MICHAEL D. COOPER
PO BOX 552
N. TURNER, ME 04266
Phone 207-224-7950

Seaplane Base Operational Statistics

Aircraft based on the field: 1
Single engine airplanes: 1
    

Instrument Procedures

There are no published instrument procedures at ME11.

Some nearby airports with instrument procedures:

81B - Oxford County Regional Airport (14 nm SW)
KLEW - Auburn/Lewiston Municipal Airport (18 nm S)
KAUG - Augusta State Airport (21 nm E)
KWVL - Waterville Robert LaFleur Airport (29 nm NE)
KOWK - Central Maine Airport of Norridgewock (29 nm NE)
 
Loc | Ops | Rwys | IFR | FBO | Links
Com | Nav | Svcs | Stats | Notes

Auburn-Lewiston Municipal Airport
 
Area around ME11 (Cooper Seaplane Base)
 
Road maps at: MapQuest Bing Google
 
Aerial photo
No photo
 
Sectional chart

 
Airport distance calculator
Flying to Cooper Seaplane Base? Find the distance to fly.

From to ME11

Sunrise and sunset
Times for 23-Feb-2018
 Local
(UTC-5)
 Zulu
(UTC)
Morning civil twilight06:0011:00
Sunrise06:3011:30
Sunset17:2022:20
Evening civil twilight17:4922:49

Current date and time
Zulu (UTC)  23-Feb-2018 21:19:25
Local (UTC-5)  23-Feb-2018 16:19:25
 
METAR
KLEW 
19nm S 
232056Z AUTO 16007KT 10SM -RA BKN023 OVC030 01/M03 A3042 RMK AO2 UPB27E33RAB33 SLP320 P0000 60000 T00061028 56049 FZRANO
KAUG 
21nm E 
232053Z AUTO 16009KT 10SM OVC022 M01/M06 A3044 RMK AO2 SLP314 T10061056 56041
KWVL 
29nm E 
232056Z AUTO VRB04KT 10SM OVC025 M01/M06 A3039 RMK AO2 PRESFR SLP323 T10111061 56044 FZRANO
KIWI 
33nm SE 
232053Z AUTO 14004KT 10SM OVC022 01/M03 A3048 RMK AO2 SLP322 T00061028 56046
KIZG 
36nm SW 
232101Z AUTO 19003KT 10SM UP BKN045 OVC055 00/M01 A3041 RMK AO2 UPB2055FZRAE2055 P0000 I1000 T00001011
TAF
KAUG 
21nm E 
231744Z 2318/2418 16005KT P6SM SCT100 FM232300 12007KT 3SM -SN OVC015 TEMPO 2401/2404 3SM -FZRA BKN007 FM240400 18008KT 5SM -RA OVC007 FM240900 29006KT P6SM FEW250
NOTAMs
Click for the latest NOTAMs
NOTAMs are issued by the DoD/FAA and will open in a separate window not controlled by AirNav.

 

 
 

Would you like to see your business listed on this page?

 If your business provides an interesting product or service to pilots, flight crews, aircraft, or users of the Cooper Seaplane Base, you should consider listing it here.  To start the listing process, click on the button below
 
Add a business
 

Other Pages about Cooper Seaplane Base

Update a link
 
Copyright © AirNav, LLC. All rights reserved. Privacy Policy  Contact